Terminal Aerodrome Forecast
Issued by NWS

Home | Current Version | Previous Version | Text Only | Print | Product List | Glossary On
Versions: 1 2 3 4 5 6 7 8 9 10 11 12 13 14 15 16
555
FTUS43 KEAX 172050 AAB
TAFMKC
TAF AMD
KMKC 172050Z 1721/1818 19012G22KT 6SM BR SCT007 OVC025
      TEMPO 1721/1724 5SM -DZ SCT025
     FM180600 31009KT P6SM -SHRA OVC015
     FM180900 34016G25KT P6SM -SHRA OVC015
     FM181500 34018G28KT P6SM SCT015 BKN080=

USA.gov is the U.S. government's official web portal to all federal, state and local government web resources and services.